User: anonymous   Login
Location: Bothwell
(42.3833°S, 147.0000°E)
Time: 06:35:52
(UTC+10:00)
Language:

KAITUO 1B - Orbit

View from above orbital plane
View from above orbital plane
View from above satellite
View from above satellite

Ground track
Ground track

The orbit data is extracted from the following two-line orbital elements,

1 40912U 15049P   22267.35912683  .00011220  00000-0  41375-3 0  9990
2 40912  97.4373 278.4047 0010828 320.9461 153.1922 15.27911303388843
Epoch (UTC): 24 September 2022 08:37:08
Eccentricity: 0.0010828
inclination: 97.4373°
perigee height: 474 km
apogee height: 489 km
right ascension of ascending node: 278.4047°
argument of perigee: 320.9461°
revolutions per day: 15.27911303
mean anomaly at epoch: 153.1922°
orbit number at epoch: 38884

The dashed part of the orbit path shows where the satellite is in the earth's shadow,  

DLR